SPACEBEE-15 (46302 NORAD) Tracking and Keplerian Element Data

This shows tracking and keplerian element data for the satellite.

Feedback or suggestion? Click here.




ElementValue
Catalog46302
NameSPACEBEE-15
Epoch Orbit1345
Epoch Day336.88984127
Epoch Year2020
RAAN48.4113
Inclination97.5112
Eccentricity0.0001144
Argument of Perigee73.7991
Mean Anonmoly286.3365
Mean Motion15.11057431
Decay Rate6.335E-05
L11 46302U 20061AG 20336.88984127 .00006335 00000-0 38245-3 0 9997
L22 46302 97.5112 48.4113 0001144 73.7991 286.3365 15.11057431 13453

Live tracking and technical data element details for SPACEBEE-15 (NORAD 46302). SPACEBEE-15 can be tracked NOW for your location showing map with azimuth and elevation plus other details from your city location.

Track the satellite on the map from your city or location and see movement details for azimuth, elevation, latitude, longitude, range, height, and movement on the map or in text.







IsCatalogInMostPopularTable: catalog: 46302, numindb: 15
Update: records affected: 1



GetName: 46302 SPACEBEE-15

Hit Count: updated at: Wed, 02 Dec 2020 17:52:53 GMT